TimeEDT,TemperatureF,Dew PointF,Humidity,Sea Level PressureIn,VisibilityMPH,Wind Direction,Wind SpeedMPH,Gust SpeedMPH,PrecipitationIn,Events,Conditions,WindDirDegrees,DateUTC
12:51 AM,27.0,3.0,36,30.14,10.0,North,9.2,20.7,N/A,,Clear,10,2014-03-24 04:51:00
1:51 AM,25.0,3.9,41,30.16,10.0,Variable,6.9,-,N/A,,Clear,0,2014-03-24 05:51:00
2:51 AM,23.0,3.0,42,30.17,10.0,North,9.2,17.3,N/A,,Clear,360,2014-03-24 06:51:00
3:51 AM,23.0,1.9,40,30.18,10.0,North,10.4,19.6,N/A,,Clear,350,2014-03-24 07:51:00
4:51 AM,21.9,1.9,42,30.19,10.0,North,11.5,17.3,N/A,,Clear,360,2014-03-24 08:51:00
5:51 AM,21.9,3.0,44,30.21,10.0,Variable,3.5,-,N/A,,Clear,0,2014-03-24 09:51:00
6:51 AM,21.0,3.0,46,30.22,10.0,WNW,8.1,-,N/A,,Clear,300,2014-03-24 10:51:00
7:51 AM,21.9,3.9,46,30.24,10.0,WNW,6.9,-,N/A,,Clear,300,2014-03-24 11:51:00
8:51 AM,24.1,3.9,42,30.24,10.0,North,8.1,18.4,N/A,,Clear,10,2014-03-24 12:51:00
9:51 AM,25.0,3.0,39,30.24,10.0,North,5.8,-,N/A,,Scattered Clouds,350,2014-03-24 13:51:00
10:51 AM,26.1,3.0,37,30.23,10.0,NW,4.6,-,N/A,,Scattered Clouds,320,2014-03-24 14:51:00
11:51 AM,28.9,1.9,32,30.22,10.0,Variable,4.6,-,N/A,,Scattered Clouds,0,2014-03-24 15:51:00
12:51 PM,30.9,1.0,28,30.19,10.0,Variable,5.8,-,N/A,,Partly Cloudy,0,2014-03-24 16:51:00
1:51 PM,32.0,1.0,27,30.17,10.0,WSW,4.6,-,N/A,,Partly Cloudy,250,2014-03-24 17:51:00
2:51 PM,33.1,1.0,26,30.14,10.0,NW,11.5,-,N/A,,Clear,310,2014-03-24 18:51:00
3:51 PM,34.0,1.0,25,30.12,10.0,Variable,6.9,17.3,N/A,,Clear,0,2014-03-24 19:51:00
4:51 PM,33.1,-0.0,24,30.11,10.0,Variable,3.5,-,N/A,,Clear,0,2014-03-24 20:51:00
5:51 PM,33.1,1.9,27,30.12,10.0,North,-9999.0,-,N/A,,Clear,0,2014-03-24 21:51:00
6:51 PM,32.0,1.9,28,30.13,10.0,WNW,8.1,-,N/A,,Clear,290,2014-03-24 22:51:00
7:51 PM,30.9,3.0,31,30.14,10.0,Variable,3.5,-,N/A,,Clear,0,2014-03-24 23:51:00
8:51 PM,30.9,3.0,31,30.16,10.0,Variable,6.9,-,N/A,,Clear,0,2014-03-25 00:51:00
9:51 PM,30.0,3.0,32,30.17,10.0,WNW,8.1,-,N/A,,Clear,300,2014-03-25 01:51:00
10:51 PM,28.9,3.0,33,30.17,10.0,NW,5.8,-,N/A,,Clear,310,2014-03-25 02:51:00
11:51 PM,28.9,3.9,35,30.17,10.0,Variable,4.6,-,N/A,,Clear,0,2014-03-25 03:51:00